Regional Weather Roundup
Issued by NWS

Home | Current Version | Previous Version | Text Only | Print | Product List | Glossary On
Versions: 1 2 3 4 5 6 7 8 9 10 11 12 13 14 15 16 17 18 19 20 21 22 23 24 25 26 27 28 29 30 31 32 33 34 35 36 37 38 39 40 41 42 43 44 45 46 47 48 49 50
000
ASUS43 KMPX 300701
RWRMN
WEATHER ROUNDUP FOR MINNESOTA
NATIONAL WEATHER SERVICE TWIN CITIES/CHANHASSEN MN
200 AM CDT WED JUL 30 2014


NOTE: "FAIR" INDICATES FEW OR NO CLOUDS BELOW 12,000 FEET WITH NO
SIGNIFICANT WEATHER AND/OR OBSTRUCTIONS TO VISIBILITY. N/A MEANS
CURRENT SKY AND/OR WEATHER CONDITIONS ARE NOT AVAILABLE.

MNZ060>063-068>070-300800-
   Twin Cities Metro

CITY           SKY/WX    TMP DP  RH WIND       PRES   REMARKS
TWIN CITIES    PTCLDY    63  56  78 NW6       30.06F
ST PAUL        CLEAR     61  59  93 CALM      30.06F
CRYSTAL        CLEAR     64  54  69 NW5       30.05S
BLAINE         CLEAR     63  59  88 CALM      30.06S
LAKEVILLE      CLEAR     57  55  94 W3        30.06F
EDEN PRAIRIE   CLEAR     64  56  75 NW6       30.05S
SOUTH ST PAUL  CLEAR     62  58  88 CALM      30.06F
LAKE ELMO      FAIR      57  55  94 CALM      30.07S
$$
MNZ001>005-007-008-013>017-022>024-027-028-300800-
   Northwest Minnesota

CITY           SKY/WX    TMP DP  RH WIND       PRES   REMARKS
BEMIDJI        CLEAR     56  53  92 NW6       30.10R
HALLOCK        CLEAR     57  54  88 CALM      30.10S
ROSEAU         CLEAR     61  55  82 W7        30.08F
WARROAD        CLEAR     61  54  77 W7        30.08S
THIEF RVR FALL CLEAR     61  55  82 CALM      30.10F
CROOKSTON      CLEAR     57  55  94 CALM      30.11S
FOSSTON        CLEAR     52  46  82 CALM      30.12R
DETROIT LAKES  CLEAR     61  55  82 CALM      30.13S
MOORHEAD       CLEAR     59  57  94 CALM      30.12S
PARK RAPIDS    CLEAR     55  52  89 CALM      30.10S
$$
MNZ006-009>011-018-025>026-300800-
   North Central Minnesota

CITY           SKY/WX    TMP DP  RH WIND       PRES   REMARKS
BAUDETTE       CLEAR     60  55  83 CALM      30.08R
FLAG ISLAND    CLEAR     66  57  72 NW10      30.05S
INTL FALLS     CLEAR     51  50  96 CALM      30.05F
WASKISH        CLEAR     64  55  72 CALM      30.08R
BIG FORK       CLEAR     54  52  94 CALM      30.08S
LONGVILLE      CLEAR     55  55 100 CALM      30.08S
GRAND RAPIDS   PTCLDY    55  54  94 CALM      30.08S
CRANE LAKE     CLEAR     48  48 100 CALM      30.08S FOG
ORR            PTCLDY    52  48  87 CALM      30.05S FOG
COOK           MOCLDY    52  52 100 CALM      30.08R
$$
MNZ012-019>021-037-300800-
   Northeast Minnesota

CITY           SKY/WX    TMP DP  RH WIND       PRES   REMARKS
DULUTH         CLEAR     56  53  90 N3        30.06S
ELY            FOG       48  46  93 CALM      30.07S VSB<1/4
HIBBING        CLEAR     52  50  93 CALM      30.07R FOG
EVELETH        FOG       50  48  93 CALM      30.08S VSB 1/2
DULUTH HARBOR  CLEAR     57  55  94 CALM      30.06S
TWO HARBORS    CLEAR     52  46  82 CALM      30.05R HAZE
SILVER BAY     CLEAR     50  50 100 CALM      30.05R
GRAND MARAIS     N/A     51  49  92 CALM      30.04F
G MARAIS ARPRT CLEAR     45  43  93 N3        30.07F
$$
MNZ029>031-032-039>041-046>048-054>057-064-300800-
   West Central Minnesota

CITY           SKY/WX    TMP DP  RH WIND       PRES   REMARKS
FERGUS FALLS   CLEAR     59  54  82 NE3       30.12S
WHEATON        CLEAR     55  54  94 W3        30.14S
MORRIS         CLEAR     54  54 100 W5        30.11S
ALEXANDRIA     CLEAR     62  55  77 NW5       30.13S
ELBOW LAKE     FAIR      61  56  85 CALM      30.12S
WADENA         CLEAR     55  54  94 NW3       30.10F
GLENWOOD       CLEAR     59  54  82 NW6       30.12S
APPLETON       CLEAR     57  54  88 W5        30.11S
BENSON         CLEAR     54  52  94 CALM      30.11S
ORTONVILLE     CLEAR     59  55  88 CALM      30.12S
MADISON        CLEAR     57  55  94 NW3       30.12S
WILLMAR        FAIR      57  54  88 NW3       30.12S
$$
MNZ033>034-036-042>043-049>051-058-059-300800-
   Central Minnesota

CITY           SKY/WX    TMP DP  RH WIND       PRES   REMARKS
ST CLOUD       CLEAR     60  54  80 CALM      30.07F
SAUK CENTRE    FAIR      56  53  90 CALM      30.11S
PAYNESVILLE    CLEAR     51  51  99 SW3       30.11S
AITKIN           N/A     55  48  76 CALM      30.06F HAZE
PINE RIVER     CLEAR     55  54  94 CALM      30.12S
BRAINERD       CLEAR     59  55  87 CALM      30.09S
STAPLES        CLEAR     55  54  94 W3        30.10S
LONG PRAIRIE   FAIR      59  54  82 NW3       30.11S
LITTLE FALLS   CLEAR     55  52  88 CALM      30.09S
LITCHFIELD       N/A     63  57  82 NW5       30.10S
BUFFALO        CLEAR     64  55  72 CALM      30.09R
MAPLE LAKE     CLEAR     63  56  80 NW3       30.09S
$$
MNZ037-044-045-052-053-300800-
   East Central Minnesota

CITY           SKY/WX    TMP DP  RH WIND       PRES   REMARKS
PRINCETON        N/A     55  54  94 CALM      30.07F
MORA           CLEAR     55  54  94 CALM      30.08F
CAMBRIDGE      PTCLDY    63  54  72 CALM      30.05F
RUSH CITY      PTCLDY    56  54  92 CALM      30.06F
MOOSE LAKE     CLOUDY    54  52  94 CALM      30.04F FOG
HINCKLEY       FAIR      59  57  94 CALM      30.06F
CLOQUET        CLEAR     54  52  94 NW3       30.06S
MCGREGOR       PTCLDY    57  55  94 CALM      30.07S
$$
MNZ071>073-080-081-089-090-097-098-300800-
   Southwest Minnesota

CITY           SKY/WX    TMP DP  RH WIND       PRES   REMARKS
MONTEVIDEO     CLEAR     59  54  82 NW6       30.12S
GRANITE FALLS  CLEAR     55  53  93 W6        30.13S
CANBY          CLEAR     57  54  89 W5        30.14S
MARSHALL       CLEAR     55  50  82 W7        30.11S
REDWOOD FALLS  CLEAR     59  55  87 NW8       30.10S
OLIVIA         CLEAR     57  52  82 NW3       30.10F
PIPESTONE      CLEAR     57  54  88 CALM      30.15S
WINDOM         CLEAR     55  54  94 CALM      30.12F
WORTHINGTON    CLEAR     54  50  87 W3        30.15S
JACKSON        CLEAR     55  52  88 W3        30.13S
TRACY          PTCLDY    60  53  78 W5        30.13S
SLAYTON        CLEAR     55  53  94 CALM      30.15S
$$
MNZ065>067-074>077-082>085-091>093-300800-
   South Central Minnesota

CITY           SKY/WX    TMP DP  RH WIND       PRES   REMARKS
MANKATO        CLEAR     61  52  72 NW6       30.08S
NEW ULM        CLEAR     57  55  94 NW5       30.09F
ST JAMES       CLEAR     57  54  88 W5        30.11S
FAIRMONT       CLEAR     59  52  77 NW6       30.10F
GLENCOE        CLEAR     61  54  78 CALM      30.08S
FARIBAULT      CLEAR     59  54  82 CALM      30.08S
OWATONNA       CLEAR     55  52  88 CALM      30.08S
WASECA         CLEAR     54  48  82 CALM      30.10S
ALBERT LEA     CLEAR     59  54  82 CALM      30.09S
$$
MNZ078>079-086>088-094>096-300800-
   Southeast Minnesota

CITY           SKY/WX    TMP DP  RH WIND       PRES   REMARKS
ROCHESTER      CLEAR     60  57  89 W8        30.08F
RED WING       CLEAR     59  55  88 CALM      30.05S
STANTON        CLEAR     58  55  91 S5        30.06S
DODGE CENTER   CLEAR     59  57  94 W3        30.08S
WINONA         PTCLDY    59  55  88 CALM      30.04F
AUSTIN         CLEAR     59  55  88 CALM      30.08F
PRESTON        CLOUDY    61  61 100 CALM      30.07F
$$
ABBREVIATIONS USED IN REMARKS
   TC - TEMPERATURES IN CELSIUS
  WCI - WIND CHILL INDEX
   HX - HEAT INDEX
  VSB - VISIBILITY
$$


USA.gov is the U.S. government's official web portal to all federal, state and local government web resources and services.